CST,Max TemperatureF,Mean TemperatureF,Min TemperatureF,Max Dew PointF,MeanDew PointF,Min DewpointF,Max Humidity, Mean Humidity, Min Humidity, Max Sea Level PressureIn, Mean Sea Level PressureIn, Min Sea Level PressureIn, Max VisibilityMiles, Mean VisibilityMiles, Min VisibilityMiles, Max Wind SpeedMPH, Mean Wind SpeedMPH, Max Gust SpeedMPH,PrecipitationIn, CloudCover, Events, WindDirDegrees
2013-1-1,14,2,-9,2,-4,-15,87,70,54,30.33,30.23,30.16,10,9,6,9,3,,0.00,3,,255
2013-1-2,21,14,8,16,8,-1,80,70,57,30.16,30.10,30.05,10,9,6,8,2,,0.00,6,,194
2013-1-3,25,16,7,19,15,1,85,77,69,30.27,30.18,30.06,10,6,2,10,7,22,0.00,6,Snow,275
2013-1-4,30,18,5,17,9,1,92,76,56,30.23,30.17,30.12,10,8,1,15,4,17,0.00,0,,274
2013-1-5,36,18,1,30,16,0,92,79,69,30.22,30.03,29.88,10,6,2,15,5,22,0.00,3,,221
2013-1-6,26,14,1,18,13,-2,87,74,66,30.30,30.16,29.93,8,5,4,15,9,,0.00,3,,281
2013-1-7,37,20,3,24,16,-1,88,70,52,30.27,30.11,30.02,10,9,6,16,5,28,0.00,0,,212
2013-1-8,39,24,10,30,17,7,93,83,65,30.09,30.03,29.92,10,4,0,16,3,23,0.00,2,Fog,110
2013-1-9,39,28,17,29,22,13,88,72,50,30.48,30.25,29.94,10,10,8,23,11,31,0.00,0,,258
2013-1-10,39,27,15,34,26,12,100,84,53,30.49,30.14,29.78,10,7,2,20,7,,0.11,4,Rain,97
2013-1-11,46,40,33,43,37,33,100,95,83,29.80,29.66,29.55,10,2,0,9,5,,0.05,7,Fog-Rain,125
2013-1-12,48,34,21,41,23,11,77,68,61,30.03,29.83,29.54,10,10,8,23,17,39,0.00,3,,259
2013-1-13,19,16,10,10,5,2,68,63,58,30.26,30.09,29.99,10,10,9,15,10,22,0.00,5,,289
2013-1-14,25,16,6,10,6,2,84,71,53,30.47,30.41,30.30,10,10,8,9,4,,0.00,0,,268
2013-1-15,30,19,8,14,9,4,84,68,43,30.43,30.29,30.06,10,9,7,13,3,,0.00,0,,186
2013-1-16,37,28,19,29,20,9,82,67,58,30.11,29.90,29.77,10,10,6,15,8,23,0.00,6,Snow,261
2013-1-17,28,22,15,13,7,0,77,53,40,30.41,30.34,30.15,10,10,10,12,8,22,0.00,0,,293
2013-1-18,46,32,18,31,23,12,85,67,50,30.40,30.02,29.83,10,10,8,16,7,29,0.00,2,,177
2013-1-19,48,32,14,32,23,0,89,65,45,30.06,29.81,29.67,10,10,8,34,8,51,0.00,4,Snow,268
2013-1-20,16,12,7,1,-2,-5,64,55,41,30.37,30.26,30.06,10,10,3,22,15,32,0.00,3,Snow,289
2013-1-21,10,5,0,1,-9,-13,67,56,48,30.34,30.25,30.18,10,9,2,18,15,26,0.00,4,Snow,292
2013-1-22,9,2,-5,-5,-9,-13,72,58,46,30.43,30.37,30.31,10,10,10,13,9,18,0.00,2,,276
2013-1-23,19,12,3,11,3,-9,79,66,52,30.51,30.24,30.08,10,6,1,23,7,31,0.00,7,Snow,278
2013-1-24,16,8,0,5,-4,-11,63,58,49,30.69,30.56,30.34,10,10,10,13,6,,0.00,2,,81
2013-1-25,26,20,14,16,11,3,81,68,55,30.30,30.09,29.93,10,7,1,18,9,22,0.01,7,Snow,256
2013-1-26,26,16,6,12,5,0,80,59,46,30.43,30.35,30.27,10,10,8,10,5,,0.00,3,,141
2013-1-27,34,28,23,32,24,12,96,80,60,30.31,30.05,29.83,10,4,1,20,9,,0.08,7,Rain-Snow,105
2013-1-28,37,35,33,36,32,30,100,91,81,29.94,29.83,29.72,7,4,0,15,5,,0.09,7,Fog-Rain-Thunderstorm,108
2013-1-29,50,42,35,48,39,31,100,93,81,29.73,29.57,29.52,7,3,0,14,8,,0.84,8,Fog-Rain-Thunderstorm,45
2013-1-30,35,25,15,31,23,6,92,81,65,29.68,29.46,29.37,10,3,0,20,12,30,0.19,8,Fog-Snow,337
2013-1-31,15,8,1,9,1,-7,79,69,60,30.21,29.89,29.67,10,6,1,24,13,30,0.00,7,Snow,284